TimeAKST,TemperatureF,Dew PointF,Humidity,Sea Level PressureIn,VisibilityMPH,Wind Direction,Wind SpeedMPH,Gust SpeedMPH,PrecipitationIn,Events,Conditions,WindDirDegrees,DateUTC
12:16 AM,-34.6,-40.0,75,29.88,10.0,Calm,Calm,-,N/A,,Clear,0,2012-12-07 09:16:00
12:36 AM,-34.6,-40.0,75,29.88,10.0,Calm,Calm,-,N/A,,Clear,0,2012-12-07 09:36:00
12:56 AM,-34.6,-40.0,75,29.88,10.0,Calm,Calm,-,N/A,,Clear,0,2012-12-07 09:56:00
1:16 AM,-34.6,-40.0,75,29.89,10.0,Calm,Calm,-,N/A,,Clear,0,2012-12-07 10:16:00
1:36 AM,-34.6,-40.0,75,29.89,10.0,Calm,Calm,-,N/A,,Clear,0,2012-12-07 10:36:00
1:56 AM,-34.6,-41.8,68,29.89,10.0,Calm,Calm,-,N/A,,Clear,0,2012-12-07 10:56:00
2:16 AM,-34.6,-40.0,75,29.89,10.0,Calm,Calm,-,N/A,,Clear,0,2012-12-07 11:16:00
2:36 AM,-34.6,-40.0,75,29.89,10.0,Calm,Calm,-,N/A,,Clear,0,2012-12-07 11:36:00
2:56 AM,-34.6,-40.0,75,29.89,10.0,Calm,Calm,-,N/A,,Clear,0,2012-12-07 11:56:00
3:16 AM,-34.6,-40.0,75,29.89,10.0,Calm,Calm,-,N/A,,Clear,0,2012-12-07 12:16:00
3:36 AM,-34.6,-40.0,75,29.89,10.0,Calm,Calm,-,N/A,,Clear,0,2012-12-07 12:36:00
3:56 AM,-34.6,-40.0,75,29.89,10.0,Calm,Calm,-,N/A,,Clear,0,2012-12-07 12:56:00
4:16 AM,-32.8,-38.2,75,29.89,10.0,Calm,Calm,-,N/A,,Clear,0,2012-12-07 13:16:00
4:36 AM,-34.6,-40.0,75,29.89,10.0,Calm,Calm,-,N/A,,Clear,0,2012-12-07 13:36:00
4:56 AM,-34.6,-40.0,75,29.89,10.0,Calm,Calm,-,N/A,,Clear,0,2012-12-07 13:56:00
5:16 AM,-34.6,-38.2,82,29.89,10.0,Calm,Calm,-,N/A,,Clear,0,2012-12-07 14:16:00
5:36 AM,-32.8,-40.0,68,29.89,10.0,Calm,Calm,-,N/A,,Clear,0,2012-12-07 14:36:00
5:56 AM,-34.6,-40.0,75,29.89,10.0,Calm,Calm,-,N/A,,Clear,0,2012-12-07 14:56:00
6:16 AM,-34.6,-40.0,75,29.89,10.0,Calm,Calm,-,N/A,,Clear,0,2012-12-07 15:16:00
6:36 AM,-34.6,-40.0,75,29.89,10.0,Calm,Calm,-,N/A,,Clear,0,2012-12-07 15:36:00
6:56 AM,-34.6,-41.8,68,29.89,10.0,Calm,Calm,-,N/A,,Clear,0,2012-12-07 15:56:00
7:16 AM,-34.6,-40.0,75,29.89,10.0,Calm,Calm,-,N/A,,Clear,0,2012-12-07 16:16:00
7:36 AM,-34.6,-40.0,75,29.90,10.0,Calm,Calm,-,N/A,,Clear,0,2012-12-07 16:36:00
7:56 AM,-34.6,-40.0,75,29.90,10.0,Calm,Calm,-,N/A,,Clear,0,2012-12-07 16:56:00
8:16 AM,-34.6,-40.0,75,29.90,10.0,Calm,Calm,-,N/A,,Clear,0,2012-12-07 17:16:00
8:36 AM,-34.6,-40.0,75,29.90,10.0,Calm,Calm,-,N/A,,Clear,0,2012-12-07 17:36:00
8:56 AM,-34.6,-40.0,75,29.90,10.0,Calm,Calm,-,N/A,,Clear,0,2012-12-07 17:56:00
9:16 AM,-34.6,-40.0,75,29.90,10.0,Calm,Calm,-,N/A,,Clear,0,2012-12-07 18:16:00
9:36 AM,-34.6,-40.0,75,29.90,10.0,Calm,Calm,-,N/A,,Clear,0,2012-12-07 18:36:00
9:56 AM,-34.6,-40.0,75,29.91,10.0,Calm,Calm,-,N/A,,Clear,0,2012-12-07 18:56:00
10:16 AM,-32.8,-38.2,75,29.90,10.0,Calm,Calm,-,N/A,,Clear,0,2012-12-07 19:16:00
10:36 AM,-32.8,-38.2,75,29.91,10.0,Calm,Calm,-,N/A,,Clear,0,2012-12-07 19:36:00
10:56 AM,-32.8,-38.2,75,29.91,10.0,Calm,Calm,-,N/A,,Clear,0,2012-12-07 19:56:00
11:16 AM,-32.8,-38.2,75,29.91,10.0,Calm,Calm,-,N/A,,Clear,0,2012-12-07 20:16:00
11:36 AM,-32.8,-36.4,83,29.91,10.0,Calm,Calm,-,N/A,,Clear,0,2012-12-07 20:36:00
11:56 AM,-29.2,-34.6,75,29.91,10.0,Calm,Calm,-,N/A,,Clear,0,2012-12-07 20:56:00
12:16 PM,-27.4,-32.8,75,29.91,10.0,Calm,Calm,-,N/A,,Clear,0,2012-12-07 21:16:00
12:36 PM,-27.4,-32.8,75,29.91,10.0,Calm,Calm,-,N/A,,Clear,0,2012-12-07 21:36:00
12:56 PM,-27.4,-34.6,69,29.91,10.0,Calm,Calm,-,N/A,,Clear,0,2012-12-07 21:56:00
1:16 PM,-29.2,-34.6,75,29.90,10.0,Calm,Calm,-,N/A,,Clear,0,2012-12-07 22:16:00
1:36 PM,-29.2,-34.6,75,29.90,10.0,Calm,Calm,-,N/A,,Clear,0,2012-12-07 22:36:00
1:56 PM,-29.2,-34.6,75,29.90,10.0,Calm,Calm,-,N/A,,Clear,0,2012-12-07 22:56:00
2:16 PM,-29.2,-34.6,75,29.90,10.0,Calm,Calm,-,N/A,,Clear,0,2012-12-07 23:16:00
2:36 PM,-29.2,-34.6,75,29.90,10.0,Calm,Calm,-,N/A,,Clear,0,2012-12-07 23:36:00
2:56 PM,-29.2,-34.6,75,29.90,10.0,Calm,Calm,-,N/A,,Clear,0,2012-12-07 23:56:00
3:16 PM,-29.2,-34.6,75,29.89,10.0,Calm,Calm,-,N/A,,Clear,0,2012-12-08 00:16:00
3:36 PM,-29.2,-34.6,75,29.89,10.0,Calm,Calm,-,N/A,,Clear,0,2012-12-08 00:36:00
3:56 PM,-29.2,-34.6,75,29.89,10.0,Calm,Calm,-,N/A,,Clear,0,2012-12-08 00:56:00
4:16 PM,-27.4,-32.8,75,29.89,10.0,Calm,Calm,-,N/A,,Clear,0,2012-12-08 01:16:00
4:36 PM,-27.4,-34.6,69,29.89,10.0,Calm,Calm,-,N/A,,Clear,0,2012-12-08 01:36:00
4:56 PM,-29.2,-34.6,75,29.89,10.0,Calm,Calm,-,N/A,,Clear,0,2012-12-08 01:56:00
5:16 PM,-29.2,-34.6,75,29.89,10.0,Calm,Calm,-,N/A,,Clear,0,2012-12-08 02:16:00
5:36 PM,-29.2,-34.6,75,29.88,10.0,Calm,Calm,-,N/A,,Clear,0,2012-12-08 02:36:00
5:56 PM,-29.2,-34.6,75,29.88,10.0,Calm,Calm,-,N/A,,Clear,0,2012-12-08 02:56:00
6:16 PM,-29.2,-34.6,75,29.89,10.0,Calm,Calm,-,N/A,,Clear,0,2012-12-08 03:16:00
6:36 PM,-29.2,-34.6,75,29.89,10.0,Calm,Calm,-,N/A,,Clear,0,2012-12-08 03:36:00
6:56 PM,-29.2,-34.6,75,29.89,10.0,Calm,Calm,-,N/A,,Clear,0,2012-12-08 03:56:00
7:16 PM,-29.2,-34.6,75,29.89,10.0,Calm,Calm,-,N/A,,Clear,0,2012-12-08 04:16:00
7:36 PM,-29.2,-34.6,75,29.89,10.0,Calm,Calm,-,N/A,,Clear,0,2012-12-08 04:36:00
7:56 PM,-29.2,-34.6,75,29.89,10.0,Calm,Calm,-,N/A,,Clear,0,2012-12-08 04:56:00
8:16 PM,-27.4,-32.8,75,29.89,10.0,Calm,Calm,-,N/A,,Clear,0,2012-12-08 05:16:00
8:36 PM,-27.4,-32.8,75,29.89,10.0,Calm,Calm,-,N/A,,Clear,0,2012-12-08 05:36:00
8:56 PM,-29.2,-34.6,75,29.89,10.0,Calm,Calm,-,N/A,,Clear,0,2012-12-08 05:56:00
9:16 PM,-27.4,-34.6,69,29.88,10.0,Calm,Calm,-,N/A,,Clear,0,2012-12-08 06:16:00
9:36 PM,-27.4,-32.8,75,29.89,10.0,Calm,Calm,-,N/A,,Clear,0,2012-12-08 06:36:00
9:56 PM,-27.4,-32.8,75,29.89,10.0,Calm,Calm,-,N/A,,Clear,0,2012-12-08 06:56:00
10:16 PM,-27.4,-34.6,69,29.89,10.0,South,3.5,-,N/A,,Clear,190,2012-12-08 07:16:00
10:36 PM,-27.4,-32.8,75,29.89,10.0,Calm,Calm,-,N/A,,Clear,0,2012-12-08 07:36:00
10:56 PM,-27.4,-34.6,69,29.89,10.0,Calm,Calm,-,N/A,,Clear,0,2012-12-08 07:56:00
11:16 PM,-27.4,-32.8,75,29.90,10.0,SSW,3.5,-,N/A,,Clear,200,2012-12-08 08:16:00
11:36 PM,-27.4,-32.8,75,29.90,10.0,Calm,Calm,-,N/A,,Clear,0,2012-12-08 08:36:00
11:56 PM,-27.4,-32.8,75,29.90,10.0,Calm,Calm,-,N/A,,Clear,0,2012-12-08 08:56:00